Location: Ste-F�licit�
(48.8999°N, 67.3360°W)
Time: 20:49:57
(UTC-04:00)

Starlink (trailer) - Visible Passes

Search period start: 19 August 2019 00:00
Search period end: 29 August 2019 00:00
Orbit: 549 x 550 km, 53.0° (Epoch: 19 August)

Date Brightness Start Highest point End Pass type
(mag) Time Alt. Az. Time Alt. Az. Time Alt. Az.
19 Aug 4.9 21:06:24 10° WNW 21:10:04 31° SW 21:12:28 17° S visible
20 Aug 5.3 21:01:10 10° W 21:04:32 24° SW 21:07:16 13° S visible
21 Aug 5.7 20:56:02 10° W 20:58:59 19° SW 21:01:55 10° S visible
22 Aug 6.1 20:51:05 10° W 20:53:24 15° SW 20:55:42 10° SSW visible
23 Aug 6.3 20:46:41 10° WSW 20:47:47 11° SW 20:48:54 10° SW visible
